Weather History for Memphis, TN

Change the Weather History Date:

Sunday, September 11, 2011

  Actual Average Record
Temperature  
Mean Temperature 78 °F 77 °F  
Max Temperature 89 °F 87 °F 96 °F (1983)
Min Temperature 67 °F 67 °F 47 °F (1940)
Degree Days  
Heating Degree Days 0 0  
Month to date heating degree days 0 0  
Since 1 July heating degree days 0 0  
Cooling Degree Days 13 12  
Month to date cooling degree days 119 149  
Year to date cooling degree days 2321 1984  
Growing Degree Days 27 (Base 50)    
Moisture  
Dew Point 57 °F    
Average Humidity 54    
Maximum Humidity 73    
Minimum Humidity 34    
Precipitation  
Precipitation 0.00 in 0.10 in 4.45 in (2014)
Month to date precipitation 0.20 1.02  
Year to date precipitation 38.46 36.40  
Snow  
Snow 0.00 in 0.00 in - ()
Month to date snowfall 0.0  
Since 1 July snowfall 0.0  
Since 1 September snowfall 0.0  
Snow Depth -    
Sea Level Pressure  
Sea Level Pressure 30.01 in    
Wind  
Wind Speed 4 mph (West)    
Max Wind Speed 15 mph    
Max Gust Speed 25 mph    
Visibility 10 miles    
Events      
T = Trace of Precipitation, MM = Missing Value Source: NWS Daily Summary

Daily Weather History Graph

Daily Weather History Graph

Search for Another Location

Airport:

Trip Planner

Search our weather history database for the weather conditions in past years. The results will help you decide how hot, cold, wet, or windy it might be!

Date:

Astronomy

Sep. 11, 2011 Rise Set
Actual Time 6:39 AM CDT 7:12 PM CDT
Civil Twilight 6:14 AM CDT 7:38 PM CDT
Nautical Twilight 5:44 AM CDT 8:08 PM CDT
Astronomical Twilight 5:13 AM CDT 8:38 PM CDT
Moon 6:36 PM CDT (9/11) 5:58 AM CDT (9/11)
Length of Visible Light 13h 24m
Length of Day
12h 33m
Full, 100% of the Moon is Illuminated
Sep 11
Full
Sep 12
Full
Sep 20
Last Quarter
Sep 27
New
Oct 3
First Quarter

Hourly Weather History & Observations

Time (CDT) Temp. Heat Index Dew Point Humidity Pressure Visibility Wind Dir Wind Speed Gust Speed Precip Events Conditions
12:54 AM 73.0 °F - 54.0 °F 51% 29.99 in 10.0 mi South 4.6 mph - N/A   Overcast
1:54 AM 73.9 °F - 54.0 °F 50% 29.98 in 10.0 mi South 9.2 mph - N/A   Overcast
2:54 AM 71.1 °F - 55.0 °F 57% 29.97 in 10.0 mi South 9.2 mph - N/A   Scattered Clouds
3:54 AM 71.1 °F - 55.9 °F 59% 29.96 in 10.0 mi Calm Calm - N/A   Scattered Clouds
4:54 AM 71.1 °F - 57.0 °F 61% 29.97 in 10.0 mi Variable 3.5 mph - N/A   Scattered Clouds
5:54 AM 66.9 °F - 57.0 °F 70% 29.98 in 10.0 mi Calm Calm - N/A   Scattered Clouds
6:54 AM 69.8 °F - 57.2 °F 64% 30.00 in 10.0 mi South 3.5 mph - N/A   Mostly Cloudy
7:54 AM 71.1 °F - 57.9 °F 63% 30.01 in 10.0 mi Calm Calm - N/A   Mostly Cloudy
8:54 AM 73.0 °F - 59.0 °F 61% 30.03 in 10.0 mi West 4.6 mph - N/A   Mostly Cloudy
9:54 AM 75.9 °F - 60.1 °F 58% 30.04 in 10.0 mi Calm Calm - N/A   Mostly Cloudy
10:54 AM 79.0 °F - 60.1 °F 52% 30.04 in 10.0 mi Calm Calm - N/A   Scattered Clouds
11:54 AM 84.0 °F 83.5 °F 57.9 °F 41% 30.04 in 10.0 mi WNW 5.8 mph - N/A   Scattered Clouds
12:54 PM 86.0 °F 84.5 °F 55.0 °F 35% 30.03 in 10.0 mi WNW 5.8 mph - N/A   Scattered Clouds
1:54 PM 88.0 °F 86.9 °F 57.9 °F 36% 30.02 in 10.0 mi West 8.1 mph - N/A   Scattered Clouds
2:54 PM 88.0 °F 86.7 °F 57.0 °F 35% 30.00 in 10.0 mi West 11.5 mph 25.3 mph N/A   Scattered Clouds
3:54 PM 87.1 °F 85.7 °F 55.9 °F 35% 29.99 in 10.0 mi NW 12.7 mph - N/A   Scattered Clouds
4:54 PM 87.1 °F 85.7 °F 55.9 °F 35% 30.00 in 10.0 mi Variable 5.8 mph - N/A   Scattered Clouds
5:54 PM 84.9 °F 84.2 °F 57.9 °F 40% 30.00 in 10.0 mi North 10.4 mph - N/A   Scattered Clouds
6:54 PM 80.6 °F 80.5 °F 55.4 °F 42% 30.01 in 10.0 mi NNW 6.9 mph - N/A   Scattered Clouds
7:54 PM 80.6 °F 80.8 °F 57.2 °F 45% 30.03 in 10.0 mi North 3.5 mph - N/A   Scattered Clouds
8:54 PM 75.2 °F - 57.2 °F 53% 30.06 in 10.0 mi Calm Calm - N/A   Partly Cloudy
9:54 PM 75.0 °F - 59.0 °F 57% 30.06 in 10.0 mi Calm Calm - N/A   Partly Cloudy
10:54 PM 71.1 °F - 59.0 °F 66% 30.06 in 10.0 mi South 3.5 mph - N/A   Partly Cloudy
11:54 PM 72.0 °F - 59.0 °F 64% 30.07 in 10.0 mi Calm Calm - N/A   Partly Cloudy